TimeEDT,TemperatureF,Dew PointF,Humidity,Sea Level PressureIn,VisibilityMPH,Wind Direction,Wind SpeedMPH,Gust SpeedMPH,PrecipitationIn,Events,Conditions,WindDirDegrees,DateUTC
12:56 AM,34.9,28.0,76,30.33,10.0,Calm,Calm,-,N/A,,Overcast,0,2013-03-29 04:56:00
1:56 AM,35.6,28.4,75,30.26,10.0,Calm,Calm,-,N/A,,Overcast,0,2013-03-29 05:56:00
2:56 AM,34.0,29.1,82,30.33,10.0,Calm,Calm,-,N/A,,Overcast,0,2013-03-29 06:56:00
3:56 AM,34.0,28.0,79,30.32,10.0,Calm,Calm,-,N/A,,Overcast,0,2013-03-29 07:56:00
4:56 AM,34.9,28.0,76,30.31,10.0,Calm,Calm,-,N/A,,Overcast,0,2013-03-29 08:56:00
5:56 AM,34.0,28.0,79,30.31,10.0,Calm,Calm,-,N/A,,Overcast,0,2013-03-29 09:56:00
6:56 AM,32.9,29.1,86,30.31,10.0,Calm,Calm,-,N/A,,Overcast,0,2013-03-29 10:56:00
7:56 AM,35.6,28.4,75,30.25,10.0,Calm,Calm,-,N/A,,Mostly Cloudy,0,2013-03-29 11:56:00
8:56 AM,36.9,29.1,74,30.32,10.0,Calm,Calm,-,N/A,,Mostly Cloudy,0,2013-03-29 12:56:00
9:56 AM,39.9,30.0,68,30.32,10.0,WSW,4.6,-,N/A,,Mostly Cloudy,250,2013-03-29 13:56:00
10:56 AM,44.6,30.2,57,30.25,10.0,West,9.2,-,N/A,,Mostly Cloudy,260,2013-03-29 14:56:00
11:56 AM,46.9,27.1,46,30.31,10.0,Variable,3.5,-,N/A,,Partly Cloudy,0,2013-03-29 15:56:00
12:56 PM,46.9,24.1,41,30.29,10.0,West,6.9,-,N/A,,Mostly Cloudy,280,2013-03-29 16:56:00
1:56 PM,48.2,23.0,37,30.21,10.0,WNW,6.9,-,N/A,,Overcast,290,2013-03-29 17:56:00
2:56 PM,48.9,22.1,35,30.26,10.0,West,10.4,17.3,N/A,,Mostly Cloudy,260,2013-03-29 18:56:00
3:56 PM,48.9,20.1,32,30.25,10.0,WNW,10.4,-,N/A,,Mostly Cloudy,300,2013-03-29 19:56:00
4:56 PM,47.8,21.0,35,30.24,10.0,West,9.2,-,N/A,,Mostly Cloudy,270,2013-03-29 20:56:00
5:56 PM,50.0,23.0,35,30.24,10.0,NW,12.7,17.3,N/A,,Mostly Cloudy,320,2013-03-29 21:56:00
6:56 PM,45.9,23.0,41,30.25,10.0,NW,8.1,-,N/A,,Partly Cloudy,320,2013-03-29 22:56:00
7:56 PM,42.8,21.2,42,30.20,10.0,NW,9.2,-,N/A,,Clear,320,2013-03-29 23:56:00
8:56 PM,38.8,20.1,47,30.29,10.0,Calm,Calm,-,N/A,,Clear,0,2013-03-30 00:56:00
9:56 PM,36.9,20.1,51,30.30,10.0,Calm,Calm,-,N/A,,Clear,0,2013-03-30 01:56:00
10:56 PM,35.6,19.4,52,30.23,9.0,Calm,Calm,-,N/A,,Clear,0,2013-03-30 02:56:00
11:56 PM,32.0,20.1,62,30.30,10.0,Calm,Calm,-,N/A,,Clear,0,2013-03-30 03:56:00